Dewpoint
46 46 45 46 48 47 46 43 33 49 51 42 40 34 36 37 36 38 39 40 39 36 28 26 24 23 24 27 30 25 31 27 23 24 29 30 26 25 25 24 20 25 24 21
46 46 45 45 47 46 42 39 39 49 46 34 36 35 35 37 34 34 37 38 39 36 30 24 26 26 29 33 28 29 32 25 22 20 23 29 26 27 27 28 26 24 21 22
47 46 45 45 47 46 43 40 33 42 44 35 33 33 33 34 39 35 37 38 40 37 33 31 26 27 36 37 31 40 33 28 21 17 18 26 26 26 28 27 24 24 24 22
47 46 45 46 47 46 43 40 33 37 33 35 34 33 33 33 33 36 37 35 38 36 33 29 31 35 37 36 41 35 30 24 25 23 25 28 26 25 27 25 25 23 24 23
47 46 46 47 46 45 41 37 36 40 36 34 34 36 33 33 34 37 35 34 35 37 36 32 29 35 34 32 35 33 33 26 26 28 29 28 26 26 26 26 25 24 24 23
46 46 47 46 45 44 40 41 41 41 34 34 33 32 33 33 35 36 36 35 33 35 34 34 34 34 37 36 34 33 30 29 26 23 27 26 24 26 26 27 27 26 24 25
47 46 47 46 45 43 40 40 42 39 31 35 32 31 34 34 35 35 35 37 35 35 42 39 38 37 40 41 40 35 29 28 26 23 24 17 25 29 27 26 25 26 26 26
46 46 45 45 44 43 40 42 41 41 33 34 35 33 33 34 35 35 36 36 35 40 40 37 34 32 31 33 37 37 34 30 27 24 24 23 25 26 26 25 23 27 26 32
46 45 45 44 45 44 40 41 43 43 39 34 35 35 33 32 32 34 36 37 39 42 39 33 31 30 31 30 32 35 33 32 29 24 21 19 26 28 27 26 22 29 33 34
45 45 44 44 44 44 41 39 43 42 38 42 38 36 34 35 34 33 35 36 41 41 31 30 28 29 33 30 30 30 29 28 26 22 21 27 29 28 26 21 24 31 34 35
44 44 44 44 43 43 41 38 44 44 40 40 44 44 38 37 36 33 38 39 40 35 33 33 31 28 31 29 31 32 32 30 25 24 21 25 29 28 24 29 32 33 34 34
44 44 44 43 43 44 42 38 42 44 43 43 45 44 42 42 40 37 39 37 42 41 38 34 32 31 27 29 27 33 29 32 30 30 30 33 32 29 29 33 34 34 34 36
43 43 43 44 44 44 42 39 42 42 41 40 41 40 44 43 44 46 39 43 45 43 44 38 36 31 32 31 30 31 32 33 30 30 32 32 33 36 35 34 34 36 37 37
42 42 43 43 43 44 42 40 45 45 43 36 39 49 48 52 49 49 48 45 48 46 46 36 34 32 36 32 33 32 33 35 33 31 36 38 38 39 36 36 36 34 33 31
42 43 43 43 44 44 44 44 46 46 43 37 38 42 47 51 51 50 49 45 46 43 40 33 34 35 36 33 34 29 36 34 33 31 35 33 32 37 37 35 34 34 32 32
43 43 44 44 44 45 43 38 44 48 47 40 34 44 44 50 50 50 47 47 45 43 39 37 40 43 39 34 32 34 36 37 36 33 38 37 37 36 36 35 34 34 33 32
43 44 44 44 45 43 40 38 42 47 47 40 35 36 42 49 50 47 46 46 45 44 41 35 37 40 38 34 33 33 38 38 38 37 37 35 36 35 35 35 35 35 34 34
44 44 44 45 45 45 41 46 48 47 43 41 35 36 39 48 42 42 45 41 41 42 42 38 36 37 32 30 34 38 38 37 37 37 37 37 35 35 34 34 33 33 32 32
44 45 45 44 43 39 42 48 46 50 43 35 35 35 32 45 42 41 39 39 35 42 36 36 37 34 33 33 37 37 38 37 35 35 35 35 33 33 33 32 32 31 30 31
45 44 41 34 40 47 47 45 42 43 45 42 35 40 36 43 37 37 35 34 35 35 35 39 34 33 36 37 38 38 37 36 35 34 32 33 32 32 32 31 30 30 30 31
43 41 38 45 47 44 40 34 34 36 34 37 37 36 37 42 36 35 35 33 32 32 34 36 33 33 34 37 39 38 38 37 38 37 35 35 33 32 31 30 29 29 30 29
43 44 45 45 42 37 33 32 33 34 33 35 36 37 40 37 42 37 35 33 32 31 35 34 31 32 34 35 35 36 36 35 35 35 34 33 32 31 30 29 29 29 28 26
47 41 35 37 32 30 28 30 31 32 32 34 34 35 35 37 37 34 34 32 31 34 32 30 30 35 35 35 35 35 35 35 33 32 31 30 30 30 30 29 29 27 26 26
36 33 28 30 28 29 29 30 32 32 32 33 33 33 34 33 34 33 33 32 33 29 26 26 32 34 35 35 35 34 33 32 32 31 30 29 29 28 28 28 27 26 24 23
32 32 27 28 31 32 32 32 33 33 34 33 34 34 35 33 32 32 33 32 28 28 26 30 33 34 34 32 32 31 31 30 30 30 28 28 28 26 25 24 24 24 22 20
32 31 29 31 30 30 31 31 32 35 33 34 34 33 32 30 31 28 25 27 23 26 29 32 33 32 32 32 31 31 31 30 30 29 28 28 27 25 23 22 21 21 20 19
31 29 30 30 30 28 30 30 30 34 33 31 31 26 24 30 24 23 25 23 26 29 31 32 32 31 31 31 30 30 30 29 29 28 27 26 25 22 20 18 18 18 19 19
Lifted_Index
5 6 6 6 6 7 7 7 7 5 3 3 5 7 7 6 3 2 2 1 1 1 2 3 4 3 3 3 3 2 2 1 1 1 0 0 0 0 0 1 1 1 2 2
5 5 6 6 6 7 7 7 6 4 3 4 6 7 7 6 3 2 2 2 1 1 2 2 3 3 3 2 2 2 1 1 1 1 1 1 1 1 1 1 1 1 2 2
4 5 6 6 6 6 7 7 6 5 5 6 7 7 7 6 4 3 2 2 2 1 1 2 2 2 2 2 1 1 1 1 1 1 1 1 1 1 1 1 1 1 1 1
4 5 5 5 6 6 6 6 6 6 6 7 7 7 7 6 4 3 3 3 2 1 1 1 2 1 1 1 1 0 0 0 1 1 1 1 0 0 1 1 1 1 1 1
4 4 5 5 6 6 6 6 6 6 6 7 7 7 7 6 4 3 3 3 3 2 1 1 1 1 0 0 0 -0 -0 0 0 0 0 0 0 1 1 1 1 1 1 1
4 4 4 4 5 6 7 6 6 6 6 6 7 8 7 6 4 3 3 3 3 2 1 1 0 0 0 0 -0 -0 -0 -0 -0 -0 -0 0 1 1 1 1 1 2 2 2
3 4 4 4 5 6 7 7 6 6 6 7 7 8 7 6 4 4 3 3 2 2 1 0 -0 -0 -0 -0 -0 -0 -0 -0 -1 -1 -0 1 1 2 2 2 2 2 3 3
4 4 4 5 5 6 7 7 6 6 6 6 7 7 7 6 5 4 3 2 2 2 1 0 -0 -1 -1 -0 -0 -0 -0 -0 -1 -0 0 1 2 2 2 2 3 3 3 3
4 4 4 5 4 5 6 7 7 6 6 6 6 6 7 7 6 5 3 2 2 1 1 1 -0 -1 -1 -1 -0 -0 -0 -0 -0 -0 1 1 2 2 2 2 2 3 3 3
5 5 5 5 4 5 6 7 7 6 6 6 6 6 6 6 6 5 4 3 1 1 1 1 0 -0 -1 -1 -0 -0 -0 -0 -0 -0 0 1 1 2 2 2 2 2 3 3
5 5 5 5 5 5 7 8 8 7 6 6 5 5 6 6 6 5 4 2 1 1 1 1 0 -0 -0 -0 0 0 -0 -0 -0 -0 0 1 1 1 2 2 2 3 3 3
5 5 6 6 6 6 7 8 8 7 6 6 5 5 5 5 5 4 4 2 1 1 1 1 0 -0 -0 0 1 1 0 -0 -0 0 1 1 1 2 2 2 3 3 3 3
6 6 6 6 6 7 7 8 8 7 6 6 5 4 3 3 3 3 3 2 1 0 0 0 -0 -0 -0 0 1 1 1 0 0 1 1 2 2 2 2 3 3 3 3 3
7 7 7 7 7 7 8 8 7 6 6 5 4 3 2 1 2 2 2 1 0 -0 -0 -1 -1 -0 -0 -0 -0 0 0 0 0 1 2 2 2 3 3 3 3 3 3 3
7 7 7 7 7 7 7 7 7 6 5 4 3 2 1 0 0 1 1 1 1 -0 -0 -1 -1 -0 -1 -0 -0 -0 0 0 1 1 2 2 2 3 3 3 3 3 3 3
7 7 6 6 6 7 7 6 6 5 5 3 3 2 1 -0 -0 -0 0 1 1 0 -0 -0 -0 -1 -1 -0 0 0 0 0 1 1 2 2 2 2 2 2 3 3 3 3
6 6 6 6 6 6 6 5 4 4 4 3 2 1 0 -0 -1 -1 -0 0 0 0 -0 -0 -1 -1 -1 0 1 1 0 0 0 1 1 1 1 1 2 2 3 3 3 3
6 5 5 5 5 5 4 3 2 3 3 3 2 1 1 0 -0 -0 -0 0 0 0 -0 -0 -0 -1 -0 0 1 1 1 0 0 1 1 1 1 1 1 2 3 3 3 3
5 5 5 4 4 4 3 2 2 2 2 3 2 2 1 1 1 0 0 0 0 0 0 -0 -0 -0 0 1 1 1 1 1 0 0 1 0 0 1 1 2 2 2 2 3
4 4 4 4 3 3 2 2 2 2 2 2 2 2 2 2 3 2 1 1 1 0 0 0 -0 0 0 1 1 1 1 1 1 1 0 0 0 0 1 1 2 2 3 3
3 3 3 3 3 3 3 3 2 1 1 2 2 2 2 3 3 3 2 1 1 1 1 1 1 1 0 0 0 1 1 1 1 1 1 1 1 1 1 2 3 4 5 5
3 3 3 4 4 4 3 2 1 1 1 1 1 1 2 2 2 2 2 2 2 2 1 1 1 1 1 0 0 1 1 2 2 2 2 2 3 3 3 4 5 6 7 8
3 3 3 3 3 3 3 2 1 1 1 1 1 1 2 2 2 2 2 2 2 2 2 1 1 2 2 1 1 1 2 2 3 3 3 3 4 5 6 7 8 9 10 11
3 3 3 3 3 3 2 2 2 2 2 2 2 2 2 2 2 2 2 2 2 2 2 2 2 3 3 2 2 3 3 3 3 4 4 5 6 7 8 9 11 11 12 13
3 3 3 3 3 3 3 3 3 3 3 2 2 2 2 2 2 2 2 2 2 2 3 3 4 4 4 4 4 4 4 4 5 5 6 7 8 9 10 12 13 13 14 14
5 4 4 4 3 3 3 3 3 3 3 2 2 2 2 3 2 2 2 2 3 4 4 5 6 6 6 5 6 6 6 6 7 8 8 9 10 11 12 13 14 14 14 15
5 5 5 5 4 3 4 4 4 4 3 2 2 2 3 3 3 2 2 2 4 5 6 7 7 6 6 6 6 7 7 8 8 9 9 10 11 12 12 12 13 14 15 15